RH
99 98 96 93 92 89 82 70 56 42 28 20 16 15 20 31 43 48 44 35 28 26 27 29 30 31 31 31 32 33 37 42 46 46 44 47 50 50 54 59 59 58 59 62 60 59 61 60 53 48 46 44 44 48 51 52 53 53 48 44 45 47 46 42 34 23 14 8 6 11 25 44 59 63 64 65 67 68 67 63 62 66 71 76 81
100 99 98 97 94 91 87 77 63 49 36 25 19 16 16 23 35 46 51 48 39 31 28 29 31 31 31 31 31 32 34 39 45 46 45 49 51 52 57 60 60 59 60 64 63 61 64 65 57 51 49 47 48 52 56 57 57 57 55 50 49 53 53 47 39 31 22 14 7 6 12 27 45 58 61 62 66 69 70 68 65 65 67 70 74
100 100 99 100 98 94 91 83 69 55 43 32 22 17 17 19 27 40 51 55 52 44 36 33 33 34 33 32 31 31 33 38 45 47 47 52 53 54 60 62 61 62 63 66 67 64 67 70 63 55 52 51 51 55 59 61 61 60 59 55 52 55 57 51 42 36 29 21 13 7 6 12 27 44 55 58 60 64 69 72 71 68 67 68 71
100 101 100 101 101 98 93 85 74 60 49 39 27 19 17 17 22 33 46 54 57 55 50 44 41 39 37 35 33 32 32 37 46 49 50 54 55 58 63 64 63 63 64 68 69 67 70 74 70 60 55 55 55 57 61 64 64 63 62 59 55 56 58 55 46 39 34 27 19 12 7 6 11 25 42 53 56 57 61 67 71 71 71 71 71
100 100 100 100 101 100 96 87 77 65 54 43 32 22 19 17 19 27 41 53 57 58 59 58 54 51 47 43 39 37 35 39 48 55 55 56 58 63 67 67 66 65 65 68 69 68 72 77 76 68 61 58 58 58 60 64 66 65 63 61 57 57 59 57 50 43 38 33 26 19 12 8 7 10 21 37 49 54 55 57 61 67 72 74 73
99 100 100 100 100 101 98 90 80 68 58 47 36 26 21 18 18 23 35 51 59 61 62 64 65 63 60 57 52 45 40 43 53 61 62 59 61 68 71 69 69 69 68 69 69 68 72 77 79 76 69 62 60 60 60 61 64 65 63 60 57 57 58 57 53 47 42 37 32 26 19 13 9 7 9 18 31 44 51 52 53 56 63 69 74
98 100 99 99 100 101 100 95 85 71 61 51 41 30 24 20 19 21 30 45 60 65 65 66 68 68 69 69 66 57 47 48 60 68 67 64 66 73 75 72 72 73 72 71 69 68 71 77 80 80 76 70 63 61 60 60 61 61 61 59 57 56 57 57 55 50 46 42 36 31 25 17 12 10 9 11 17 26 38 47 50 50 51 56 64
100 101 100 99 100 100 100 99 91 76 63 55 46 35 26 21 20 21 26 38 56 66 67 67 67 68 71 74 75 68 56 55 68 76 72 69 71 77 79 75 74 75 74 72 72 71 71 74 79 80 79 77 71 64 61 60 59 59 58 58 57 56 56 57 56 53 50 45 40 33 26 18 13 11 10 11 13 16 23 33 41 46 47 48 50
101 101 101 100 100 100 100 101 96 82 67 57 50 40 30 23 20 20 21 29 45 60 66 68 67 68 71 76 79 75 63 63 77 82 77 73 76 81 82 79 76 76 75 74 74 75 74 74 78 81 80 80 78 71 64 59 58 58 58 58 57 57 57 57 56 54 52 47 42 36 30 24 20 17 14 13 13 15 20 25 29 34 40 43 44
100 100 100 100 100 100 100 101 99 88 72 60 54 46 35 26 21 19 18 21 32 47 60 67 68 69 71 76 81 79 70 72 84 87 81 78 80 84 85 82 79 76 76 76 77 79 79 76 77 82 83 82 81 77 70 63 57 56 57 58 58 58 57 57 56 56 53 49 44 39 36 32 28 24 21 19 18 18 20 22 24 27 32 36 39
101 100 100 100 100 100 100 101 100 92 78 65 57 51 41 30 23 19 17 16 23 33 48 62 69 71 72 76 82 83 78 80 89 91 87 83 84 87 88 84 78 76 78 82 83 81 80 77 77 81 84 84 84 81 76 68 61 55 53 53 55 56 55 55 56 55 53 50 45 40 35 30 26 23 20 19 17 17 17 17 19 22 26 29 33
101 101 101 101 100 100 100 100 101 96 85 71 61 55 46 34 25 21 17 14 17 24 37 55 67 72 73 76 83 87 84 85 91 94 92 89 88 90 91 86 78 74 78 84 85 81 77 77 78 80 83 85 86 85 82 75 67 60 54 50 48 47 47 47 48 48 46 42 36 32 27 23 20 19 18 17 17 16 15 15 15 16 18 22 25
100 101 101 101 100 100 100 100 101 99 90 78 66 58 50 39 29 23 19 14 13 19 31 47 62 71 75 77 83 89 90 90 93 97 97 95 94 92 90 86 79 73 74 81 83 79 77 77 80 82 84 86 86 87 87 84 76 67 61 56 51 46 42 39 37 36 35 33 28 24 23 23 22 22 22 22 20 18 16 15 14 13 14 15 16
100 100 100 100 100 100 100 100 100 100 94 83 71 62 53 43 33 25 20 15 13 17 28 43 58 70 75 78 82 89 94 96 96 98 99 99 99 97 92 87 80 72 72 80 84 83 82 82 83 86 87 87 87 86 87 89 87 78 69 63 59 56 50 43 37 32 28 27 26 25 25 26 25 25 26 26 24 22 20 16 15 14 13 13 13
100 101 100 100 100 100 100 100 100 101 96 86 76 66 56 46 36 28 22 17 14 16 26 41 56 69 76 79 83 89 97 101 99 98 100 102 103 101 97 91 83 73 72 80 87 89 89 88 89 90 91 92 92 90 87 87 87 85 81 73 66 62 59 54 48 40 32 26 24 23 24 25 25 26 27 28 29 28 26 23 19 15 12 11 11
100 102 101 100 100 100 100 100 100 101 99 90 80 71 60 48 38 30 24 18 14 16 25 38 53 68 78 81 84 90 98 102 102 101 103 103 103 102 101 97 88 77 74 81 88 91 93 95 95 94 95 97 99 98 94 89 87 86 86 83 76 69 65 63 59 53 47 39 32 28 25 23 24 25 26 28 30 31 32 31 24 18 15 12 10
100 101 101 100 100 99 100 100 100 101 100 93 84 74 63 50 40 32 25 18 14 16 23 36 52 68 79 83 85 91 98 103 103 102 103 103 101 101 102 100 93 82 78 83 90 93 94 96 99 98 98 100 102 102 98 91 87 86 88 88 86 83 78 72 66 61 58 54 48 42 36 30 26 25 25 26 28 31 34 34 30 27 26 20 11
100 100 101 101 100 99 100 100 100 101 101 96 88 77 65 53 42 34 26 19 14 15 22 35 52 67 79 85 86 90 98 103 102 101 101 101 100 100 98 96 93 89 85 86 93 97 96 95 97 99 100 101 102 103 102 95 88 87 90 91 90 92 93 86 75 69 65 61 57 53 48 43 37 32 29 27 27 29 32 35 36 36 35 28 18
100 100 101 101 100 99 100 101 100 100 101 98 91 80 67 55 44 35 27 19 14 15 22 35 51 64 78 87 89 90 98 102 102 101 101 100 100 100 94 88 88 92 94 91 91 96 98 97 96 96 97 101 102 102 103 101 93 88 89 89 88 94 101 97 89 83 74 67 63 58 54 52 48 42 37 33 31 31 31 33 36 38 39 37 34
99 100 100 101 102 100 99 101 100 100 101 99 93 84 70 57 46 36 28 20 15 16 23 35 49 62 75 87 92 94 98 102 101 100 100 100 101 100 94 90 92 97 99 96 92 92 97 100 97 92 92 98 104 103 102 101 98 93 86 78 79 93 103 101 97 92 84 75 70 65 60 57 53 49 45 41 38 36 35 35 36 37 41 42 42
99 100 100 100 102 101 100 100 100 100 101 100 95 86 72 59 48 38 29 20 15 17 25 35 50 63 74 87 97 99 99 102 102 102 103 102 101 101 98 97 98 99 98 96 94 91 94 98 96 92 93 100 103 103 102 101 100 100 92 75 70 83 99 103 100 96 90 84 78 72 67 62 57 54 50 45 43 41 40 40 39 39 42 44 45
100 100 100 100 101 102 101 100 100 100 100 100 97 87 74 60 49 39 30 21 15 18 26 37 51 65 75 87 99 104 102 102 103 104 104 104 103 103 101 99 99 99 97 96 95 93 91 92 90 92 99 103 97 92 95 99 100 102 100 91 82 82 89 97 101 100 95 90 85 80 74 67 63 60 56 50 48 47 44 44 43 42 43 45 46
100 100 100 100 100 101 101 100 100 100 100 101 98 89 75 62 50 39 31 22 16 19 27 37 51 67 79 89 99 104 104 104 104 104 104 105 105 102 99 97 98 99 99 97 96 93 89 87 87 91 98 100 94 88 88 92 94 95 98 100 97 91 87 88 93 97 97 94 91 88 82 76 72 70 67 64 60 56 52 48 46 44 43 44 47
100 100 100 100 100 100 101 100 100 100 100 101 99 90 77 63 50 40 32 23 17 19 26 38 52 68 83 93 98 101 103 104 104 104 104 103 99 95 94 95 98 99 98 96 94 91 89 89 91 93 93 93 92 89 85 83 85 88 92 96 97 96 94 91 90 92 93 92 91 90 89 88 84 81 83 84 79 69 60 53 49 46 44 43 45
100 100 100 101 100 100 100 100 100 100 100 101 100 92 78 63 50 41 33 25 19 19 25 38 54 70 85 96 100 100 101 102 101 102 102 99 94 93 94 97 98 98 96 94 92 91 90 91 93 93 91 89 87 86 83 82 83 85 89 92 94 96 98 97 94 93 91 88 87 87 89 91 91 92 95 98 94 85 75 63 54 49 47 45 43
100 100 100 101 100 100 100 100 100 100 100 101 100 93 80 64 50 41 35 26 20 21 27 38 54 67 81 95 101 101 101 102 101 100 99 97 97 98 98 98 98 97 95 92 89 88 88 90 91 89 88 87 84 82 81 82 83 84 86 88 91 93 95 96 97 97 94 90 86 85 88 92 95 98 101 100 96 92 88 79 67 57 51 48 46
100 100 100 100 100 100 100 100 100 100 100 101 101 95 82 66 52 42 35 27 21 23 30 42 55 66 77 90 99 101 101 101 99 97 96 99 101 100 97 97 97 95 92 87 85 86 89 90 88 85 84 83 81 80 80 81 83 86 88 88 88 90 93 95 97 99 98 94 89 87 90 96 98 98 97 97 96 95 95 92 85 74 63 54 49
100 100 100 100 100 100 100 100 100 100 100 101 101 96 83 68 53 43 35 28 23 25 34 46 59 69 78 88 96 100 101 99 95 95 100 103 101 97 94 92 91 89 86 85 85 88 90 88 84 83 82 82 81 81 83 85 88 89 90 89 88 89 91 94 96 99 99 96 92 89 91 95 98 98 96 95 96 98 99 98 95 90 83 70 58
100 100 100 100 100 100 100 100 100 100 100 101 101 97 85 69 55 44 36 29 25 25 33 46 57 67 76 85 91 95 98 95 92 94 100 99 94 90 88 85 86 87 87 88 88 88 86 85 83 82 83 83 85 87 88 90 92 94 94 92 90 89 91 93 97 99 100 97 94 92 90 91 95 98 99 97 96 98 101 102 100 98 95 88 77
100 100 100 100 100 100 100 100 100 100 100 100 102 98 87 71 57 45 36 30 25 23 29 42 54 65 74 81 84 87 90 90 89 90 92 91 88 87 86 85 89 91 89 87 88 87 86 86 86 86 87 89 91 92 92 92 95 97 97 95 93 92 92 94 97 99 101 99 96 94 94 93 94 96 98 99 100 101 102 103 102 101 99 95 91
100 100 100 100 100 100 100 100 100 100 100 100 102 99 88 73 58 46 36 30 24 22 27 40 53 64 72 78 81 83 85 88 90 90 91 92 93 91 89 89 93 92 88 87 91 93 93 94 95 95 96 97 96 94 93 94 97 100 101 100 99 97 96 97 98 99 100 100 98 97 98 98 97 98 98 99 100 102 104 104 103 102 100 98 95
100 100 100 100 100 100 100 100 100 100 100 100 102 100 89 74 60 49 38 30 24 22 27 38 51 62 71 77 81 84 87 90 92 94 96 97 96 94 93 93 93 91 90 94 99 101 101 101 101 101 100 100 99 96 94 95 97 98 100 100 99 99 99 99 99 99 99 100 99 98 99 99 99 100 100 100 100 101 103 104 102 100 100 99 96
100 100 100 100 100 100 100 100 100 100 100 100 101 100 90 75 63 52 40 30 25 22 25 34 46 59 70 76 80 85 90 92 92 94 96 96 95 92 91 91 91 92 94 100 103 104 104 102 101 100 100 100 100 98 97 97 98 98 98 98 96 96 97 97 97 98 97 97 97 96 97 99 100 101 101 100 100 100 100 101 101 100 101 101 98
100 100 100 100 100 100 100 100 100 100 100 100 101 100 91 77 65 53 41 30 25 21 22 30 41 54 68 77 80 82 87 91 92 93 94 94 93 91 88 87 90 93 96 99 102 102 102 101 100 100 100 100 100 100 99 100 100 99 100 100 98 96 95 93 94 96 97 97 98 97 98 99 99 100 101 100 100 101 100 100 101 101 100 99 98
100 100 100 100 100 100 100 100 100 100 100 100 102 100 92 79 66 54 41 31 25 21 21 26 34 47 61 74 81 83 85 89 91 93 94 95 94 91 87 86 89 93 94 97 100 101 102 102 102 101 100 99 99 100 100 100 100 100 100 101 101 100 99 97 97 97 97 98 99 100 101 101 99 99 100 100 100 100 100 100 101 101 100 99 99
100 100 100 100 100 101 101 100 100 100 100 100 101 101 94 81 67 54 42 33 26 22 20 22 28 38 51 65 76 83 87 90 90 92 95 95 94 93 90 88 90 93 94 96 99 101 103 104 103 102 101 101 100 100 100 100 100 101 101 101 102 102 102 101 100 99 98 98 99 100 102 103 101 99 99 100 100 100 100 100 100 101 100 100 100
100 100 100 100 100 101 100 100 100 100 100 100 101 102 95 82 68 55 42 33 28 24 21 21 22 27 38 53 67 78 87 92 93 93 96 96 96 95 94 92 91 92 94 97 100 100 101 103 103 103 103 103 102 102 101 101 101 101 102 102 102 102 102 102 100 99 99 99 99 100 102 103 102 100 99 100 100 100 100 100 100 100 100 100 100
100 100 99 100 100 100 100 101 100 100 100 100 101 102 97 83 68 54 42 34 28 24 21 21 20 21 27 40 55 70 83 91 95 95 96 98 98 98 98 96 95 94 94 96 99 100 102 103 104 104 105 104 103 102 102 101 102 102 102 103 102 101 100 100 99 99 99 99 100 101 102 103 103 102 100 100 100 100 100 100 100 100 100 100 100
100 100 100 100 100 100 100 101 100 100 100 100 100 102 98 84 69 56 44 36 30 25 22 21 20 19 21 28 41 57 73 85 93 96 97 98 99 99 100 99 98 98 99 100 100 100 100 101 101 102 102 102 102 102 102 101 101 101 100 101 101 100 98 97 97 97 98 98 100 101 102 103 104 104 102 100 100 100 100 100 100 100 100 100 100
100 100 100 99 100 100 100 100 100 100 100 100 100 101 98 86 71 59 48 39 32 27 23 21 19 19 19 22 29 41 57 74 88 96 98 99 99 99 99 98 97 98 100 100 99 98 96 96 97 98 99 99 99 99 100 100 99 99 99 99 99 99 98 98 97 97 98 98 99 100 102 103 103 104 103 102 101 100 100 100 100 100 100 100 100
100 100 100 99 100 101 100 100 100 100 100 100 100 102 99 88 73 61 52 44 35 29 25 22 20 19 19 19 21 28 40 58 76 88 94 96 97 97 96 96 95 96 95 94 94 94 94 95 95 95 96 98 98 98 99 99 98 98 99 99 100 100 99 99 98 98 99 100 100 101 102 102 103 103 104 104 103 102 101 101 100 100 101 100 100
100 100 100 100 100 100 100 100 100 100 100 100 100 102 100 90 76 65 56 47 38 32 27 23 21 20 19 19 18 20 26 36 51 66 77 83 88 91 92 92 92 91 90 89 89 90 92 94 95 95 95 95 96 97 98 98 98 98 99 99 101 102 101 100 100 99 100 101 102 102 103 103 103 102 102 103 103 103 102 102 102 101 101 100 101
100 100 100 100 100 100 100 100 100 100 100 100 100 102 101 92 79 69 59 50 42 36 30 25 23 21 20 19 18 18 19 21 28 38 49 59 67 74 80 85 89 91 89 88 87 86 86 87 89 91 93 94 95 95 95 96 97 98 99 100 102 102 102 102 102 102 102 103 103 104 104 104 103 103 102 101 102 102 102 102 102 102 102 102 101
100 100 100 100 100 100 100 100 100 100 100 100 100 102 101 94 82 72 63 54 47 40 34 29 26 23 22 21 19 18 18 17 18 21 27 34 42 50 58 68 79 88 91 90 89 87 85 84 83 84 86 87 89 90 91 93 94 96 98 100 101 102 102 102 102 102 103 104 104 105 105 105 104 104 103 103 102 102 102 102 101 101 101 102 102
100 100 100 100 100 100 100 100 100 100 100 100 100 101 102 97 86 75 67 60 53 45 39 33 29 26 24 23 21 20 19 18 18 18 19 21 25 30 35 42 54 69 81 88 90 91 91 90 87 86 85 84 84 85 85 87 89 91 94 97 99 100 101 102 102 103 103 103 103 104 104 105 105 104 103 102 102 102 102 102 101 101 101 101 101
100 100 100 100 100 100 100 100 100 100 100 100 100 101 102 99 89 80 73 66 58 51 44 38 33 30 27 25 23 22 21 20 19 19 19 19 20 21 22 25 31 43 56 67 76 83 89 92 93 93 93 91 90 88 86 84 84 85 87 91 95 98 100 101 102 104 104 104 103 102 102 103 104 105 103 102 101 100 100 100 99 100 100 101 101
100 100 100 100 100 100 100 100 100 100 100 100 100 101 102 100 93 85 78 72 64 57 49 43 38 34 31 28 26 24 22 22 21 20 20 20 19 19 19 19 20 23 29 36 43 51 60 69 77 84 89 93 95 96 94 91 88 85 84 85 88 92 96 99 100 102 103 104 104 104 103 103 104 105 105 104 103 101 100 99 99 99 99 100 100
100 100 100 100 100 100 100 100 100 100 100 100 100 101 102 101 97 90 84 77 70 63 55 49 44 39 35 32 30 28 26 24 23 22 22 21 21 20 20 19 19 18 19 20 21 24 28 33 39 47 56 65 75 83 88 92 94 93 90 86 83 83 86 91 95 99 101 102 103 104 105 105 104 103 103 102 103 102 101 99 98 98 99 100 100
100 100 100 100 100 100 100 100 100 100 100 100 100 101 102 102 100 96 90 84 77 69 62 55 49 45 41 38 35 32 31 29 27 26 25 24 24 23 22 21 21 20 20 19 19 19 19 19 20 22 24 29 35 44 54 65 76 86 91 92 90 86 82 81 84 89 95 100 102 103 102 103 103 103 103 101 100 101 101 100 99 98 98 99 101
100 100 100 100 100 100 100 100 100 100 100 100 100 100 101 102 103 100 96 90 83 76 69 62 56 51 47 44 41 38 36 34 32 31 30 29 28 27 26 26 25 24 23 23 22 22 21 21 20 20 19 19 20 21 24 29 38 50 62 74 84 90 90 87 83 80 82 87 94 99 102 102 101 101 102 102 101 100 100 99 99 99 99 99 100
100 100 100 100 100 100 100 100 100 100 100 100 100 100 100 101 103 102 99 95 90 84 77 69 64 59 55 51 48 45 42 40 38 36 35 35 34 33 32 31 30 29 28 27 27 26 25 25 24 22 22 21 20 20 19 19 20 23 27 35 46 60 73 83 87 87 84 81 81 85 92 99 102 103 101 100 101 101 102 101 100 99 100 100 100
Wind_Speed
47 45 43 43 41 40 39 38 38 37 37 36 36 34 34 34 36 37 38 38 38 38 38 37 36 35 35 34 34 33 32 31 31 30 30 28 27 27 28 29 30 29 29 29 29 29 30 30 29 28 28 30 31 34 39 43 48 52 55 56 56 55 55 55 56 57 57 58 59 58 58 59 59 59 59 58 57 57 58 60 63 64 66 68 69
49 47 44 43 41 40 39 38 38 37 36 35 35 35 34 33 35 37 38 38 38 39 38 37 37 36 35 35 34 34 32 31 31 31 29 28 27 26 27 29 29 28 28 28 28 28 28 28 27 27 27 27 29 31 35 39 44 49 52 54 54 53 53 54 54 55 56 56 56 57 57 58 59 58 59 59 58 57 57 57 59 61 62 64 65
50 49 47 44 41 40 39 38 38 36 36 35 34 34 34 33 34 35 37 38 38 38 38 38 37 36 35 35 34 34 33 32 31 30 29 29 27 26 27 28 28 27 27 27 27 27 27 26 26 25 25 25 25 27 31 35 40 45 49 51 52 52 51 52 53 54 54 53 53 55 56 57 59 59 59 59 59 57 56 56 57 58 58 60 61
50 49 48 46 43 40 38 38 37 36 35 35 34 33 33 33 33 34 35 37 37 37 38 37 37 36 35 35 34 33 33 32 31 30 29 29 27 26 27 28 27 26 26 26 26 25 25 25 24 24 23 22 22 23 26 30 36 41 45 47 49 50 49 50 51 52 52 52 50 51 53 55 57 59 59 59 59 58 57 56 56 56 56 57 58
50 49 49 47 45 42 39 37 36 36 35 34 34 33 33 32 32 33 34 35 36 37 37 37 37 36 35 34 33 32 32 32 31 29 29 29 27 25 26 27 26 25 25 25 25 24 23 23 23 22 21 19 18 19 21 25 30 36 40 43 45 47 47 48 49 50 51 50 49 48 49 52 54 57 58 59 59 59 59 57 56 56 56 56 56
50 49 49 48 47 43 40 38 36 35 34 34 33 33 33 32 32 32 32 33 34 35 36 36 36 36 34 33 32 32 31 31 30 29 28 29 27 25 26 27 25 24 24 25 25 23 21 21 22 21 19 17 16 16 18 21 25 30 35 38 41 43 45 46 47 48 48 48 48 46 45 47 51 53 55 57 59 61 61 59 58 57 57 57 57
49 49 47 48 47 45 42 40 37 34 34 33 33 32 32 32 32 31 31 32 32 33 34 35 35 35 33 32 31 31 31 30 29 28 28 28 25 24 25 26 25 24 24 24 25 24 21 20 20 20 18 16 15 14 15 17 20 25 29 33 36 39 41 42 44 45 45 45 45 43 41 41 45 48 51 53 57 60 61 62 61 60 58 58 58
48 48 46 46 46 45 44 41 37 34 33 33 32 31 32 32 32 31 31 31 31 32 33 34 34 34 32 31 31 31 30 29 29 28 28 27 24 24 25 25 24 23 23 23 23 23 22 20 19 19 18 15 14 13 13 14 17 20 24 28 32 35 37 38 40 41 42 42 41 40 38 37 38 42 45 48 52 56 58 61 64 63 62 61 60
48 46 45 45 45 46 45 42 38 35 33 33 32 31 31 31 31 31 30 30 30 30 31 32 32 32 32 31 30 30 29 28 28 28 28 26 23 23 25 25 24 23 22 22 22 22 21 20 19 19 18 16 14 13 12 13 14 16 19 24 28 31 33 35 36 37 38 39 39 38 36 34 34 36 38 41 45 48 51 56 61 64 64 64 63
46 44 43 43 44 45 45 42 39 35 33 33 32 32 31 31 31 30 29 29 29 29 29 30 30 31 31 30 30 30 29 28 28 28 27 25 23 23 24 24 24 23 21 21 22 22 22 21 19 18 18 17 15 13 13 13 14 15 17 21 24 28 30 32 33 34 36 37 37 37 36 34 33 34 36 37 38 41 45 49 54 58 62 66 67
45 42 41 41 42 44 44 42 40 36 33 33 32 32 31 31 31 30 29 29 29 28 28 28 29 29 29 29 29 29 28 28 28 28 27 24 22 23 24 24 23 22 21 21 22 24 24 21 18 17 18 17 16 15 13 13 15 16 17 19 22 24 27 29 31 32 33 35 34 34 34 33 32 32 34 36 37 39 41 43 47 51 56 61 66
44 41 40 40 41 43 43 42 40 36 34 33 33 32 31 31 31 30 30 29 28 28 27 27 27 28 28 28 28 28 28 28 28 28 26 24 22 23 25 24 23 20 20 20 21 22 22 19 16 15 16 17 17 16 15 14 14 16 18 20 22 23 25 26 28 29 30 32 32 32 32 32 31 30 31 34 36 38 39 41 43 46 49 53 59
44 41 39 38 40 42 43 42 39 36 34 32 32 32 31 31 31 31 30 29 28 27 26 26 26 27 27 27 27 28 28 28 29 28 27 24 22 24 26 25 23 20 17 17 17 18 18 16 15 15 15 16 17 16 15 14 14 14 17 20 23 24 25 26 26 27 28 30 31 31 30 30 30 28 28 31 33 35 37 38 40 42 44 46 50
44 40 37 37 38 41 42 41 39 36 33 32 32 32 31 31 31 31 30 29 27 26 26 26 26 26 26 26 26 27 27 28 29 28 27 25 23 25 27 26 23 20 16 14 15 16 16 15 15 15 15 15 15 15 13 13 13 13 14 17 21 23 25 27 27 28 29 30 31 31 30 30 30 28 28 29 30 31 33 35 36 38 40 42 44
44 40 37 35 37 40 41 41 38 35 33 31 31 31 31 32 31 31 30 28 27 26 25 25 25 25 25 25 25 26 26 28 29 28 27 25 24 26 28 27 24 20 16 15 15 15 15 16 15 15 14 14 14 15 14 13 13 12 12 14 16 20 24 26 28 29 30 31 32 32 31 31 31 30 29 29 29 29 29 31 32 34 36 39 42
45 40 36 34 36 38 40 39 37 34 33 31 30 30 31 31 31 30 29 28 26 25 24 24 24 24 24 24 24 24 26 27 28 28 27 26 25 26 28 28 26 22 17 16 16 15 15 16 16 15 14 13 14 15 16 15 14 12 11 11 13 15 18 21 25 28 29 31 32 33 32 32 32 32 30 29 29 28 28 29 30 31 33 37 40
43 39 36 35 36 37 37 37 36 34 32 30 29 29 30 30 30 30 29 27 26 25 24 24 23 23 23 23 23 23 25 26 28 28 27 27 26 27 29 29 27 23 19 17 18 17 16 16 17 16 14 14 15 16 17 17 15 12 11 10 10 10 11 15 20 24 27 29 31 32 32 32 32 32 31 31 30 29 29 29 29 29 32 34 36
40 38 37 37 36 34 34 35 35 34 32 30 29 28 28 29 30 29 28 26 25 24 23 23 22 22 22 22 22 22 23 25 27 27 27 27 27 28 30 29 26 23 21 19 19 20 19 18 17 17 16 16 16 16 17 17 16 14 13 12 10 7 7 12 17 20 23 27 29 29 30 31 32 32 32 31 31 30 31 30 29 30 32 33 33
39 39 41 40 36 32 32 34 34 33 31 29 28 27 27 28 29 29 27 26 24 24 23 22 21 21 21 21 21 21 22 24 26 27 27 27 27 30 32 29 25 23 22 21 21 22 22 21 19 18 17 17 17 17 17 18 19 17 16 16 11 6 7 12 16 18 21 23 25 26 28 28 30 31 32 31 31 31 32 32 31 31 32 32 31
42 42 43 40 34 30 31 33 33 31 30 29 28 27 27 28 28 27 26 25 24 23 22 21 21 21 21 21 21 20 21 23 24 26 26 26 27 31 32 28 24 23 24 23 22 22 22 23 22 20 18 17 18 19 19 19 20 21 21 19 12 7 10 15 17 18 19 21 21 23 25 26 27 29 30 31 31 31 32 32 32 32 32 32 32
45 44 43 39 32 29 30 32 32 30 29 28 27 26 26 27 27 26 25 24 23 22 21 20 20 20 20 20 20 20 20 21 23 24 24 25 27 30 30 28 25 25 25 24 24 23 22 23 23 22 20 20 20 21 21 22 22 23 25 23 15 11 13 17 18 18 19 19 20 21 23 24 26 27 28 30 30 31 32 32 32 32 32 32 32
47 46 43 37 30 27 28 30 30 29 28 28 26 26 26 26 26 25 25 24 22 21 20 19 19 19 20 19 19 20 20 20 20 22 23 23 25 28 28 27 25 25 25 25 24 24 23 23 22 20 20 22 24 24 23 24 25 25 26 25 22 18 17 18 19 20 21 20 20 21 22 23 23 24 25 26 27 28 30 31 32 32 33 32 31
47 46 43 36 29 26 27 28 29 28 28 27 26 25 25 25 24 24 24 23 22 20 19 18 18 18 19 19 20 20 20 19 19 20 21 22 24 26 27 26 25 25 25 25 24 25 24 23 22 21 21 24 27 26 25 25 26 27 27 27 27 26 23 21 21 22 23 23 23 22 22 22 22 21 21 21 21 24 27 29 30 32 33 33 31
47 46 43 35 28 26 26 27 27 27 27 26 25 25 24 24 23 23 23 22 21 20 19 17 17 17 18 19 20 20 20 20 20 20 21 23 24 25 25 25 25 25 26 25 24 25 25 24 24 24 25 25 26 27 27 26 26 27 28 29 29 28 27 25 23 23 24 24 24 23 22 22 22 20 18 17 19 22 25 27 29 30 32 34 32
47 46 43 35 28 25 25 25 25 26 26 25 25 24 23 22 22 22 22 22 21 20 18 17 16 17 18 18 19 20 20 20 21 22 24 25 26 26 26 26 26 26 26 26 25 25 25 25 26 26 26 26 27 27 27 27 27 27 28 29 29 29 28 27 26 25 24 24 23 22 21 21 21 19 18 18 20 22 23 25 26 28 30 33 33
47 45 41 35 29 25 24 24 24 25 25 25 24 23 22 21 21 21 21 21 20 19 18 17 16 16 16 17 18 19 20 21 23 25 27 27 26 27 27 27 27 27 27 27 26 25 24 25 26 26 26 27 27 27 27 26 27 27 27 29 30 29 28 28 27 26 25 23 22 21 19 19 20 19 20 22 23 23 23 24 24 25 28 31 32
47 44 39 34 30 25 23 22 23 24 24 24 23 23 21 20 20 20 20 20 19 18 17 17 16 15 15 15 16 18 20 22 25 27 27 27 26 27 27 26 26 27 27 26 25 24 23 24 26 26 26 26 26 26 26 26 26 26 27 28 29 28 27 27 27 26 24 22 21 19 18 19 21 22 23 24 24 24 23 24 24 24 26 29 31
45 42 37 34 30 25 22 21 22 22 23 23 22 22 21 20 20 19 19 19 18 17 17 17 16 16 15 14 15 17 20 23 25 25 25 25 25 25 25 24 24 25 25 24 23 23 24 25 25 25 25 25 25 25 25 25 25 25 26 27 28 28 27 27 26 25 23 22 21 19 18 19 21 23 24 24 24 25 25 25 24 23 24 27 30
43 40 36 33 30 25 21 20 20 21 22 22 22 21 20 19 19 18 18 18 17 17 16 16 16 15 14 14 15 16 19 21 22 22 23 23 23 22 22 22 21 22 22 22 22 23 23 24 24 24 23 24 24 23 23 23 23 23 24 25 27 27 27 26 26 24 23 22 21 19 19 19 19 21 23 23 22 22 23 24 23 22 23 26 28
41 38 34 31 28 24 20 18 19 20 21 21 21 21 20 19 18 18 17 17 17 16 16 16 16 15 14 14 14 15 17 19 19 19 20 20 20 19 19 19 18 20 21 21 21 23 23 22 22 22 22 21 21 20 20 21 21 21 23 24 25 26 26 26 25 24 24 23 21 20 20 20 19 20 21 22 21 21 22 23 22 22 23 26 27
39 35 32 29 27 23 20 18 17 18 20 20 21 21 19 18 18 17 16 16 16 16 15 15 16 15 14 13 13 14 15 17 17 18 18 19 18 18 17 17 18 20 21 21 20 21 21 20 20 19 18 18 18 17 18 18 18 19 21 22 24 25 25 25 25 25 24 23 23 22 21 21 21 21 21 22 22 22 23 23 24 24 24 26 27
37 33 30 28 27 24 20 17 16 17 19 20 21 20 19 18 18 17 16 15 15 15 15 15 15 15 14 12 12 13 14 15 16 17 17 17 17 17 16 16 18 19 19 18 18 18 17 16 16 15 15 16 16 15 15 15 15 16 18 20 21 22 23 24 24 24 24 24 24 23 23 22 22 22 22 22 22 23 24 25 25 25 24 26 27
34 31 29 28 28 25 20 16 15 17 19 20 20 20 19 18 17 16 15 14 14 14 14 15 15 15 14 12 11 12 13 15 16 16 15 15 15 15 15 16 16 16 16 16 15 15 14 13 13 13 13 13 13 14 14 14 14 14 15 16 18 19 20 21 22 22 23 24 24 24 24 24 23 22 22 22 23 23 24 25 25 25 25 26 27
32 30 28 28 28 25 19 15 15 16 18 20 20 19 19 18 17 16 15 14 14 13 13 14 15 14 14 13 12 11 12 13 15 15 14 14 13 13 13 14 14 14 13 13 13 13 12 12 12 12 12 12 12 13 13 14 14 15 15 16 16 17 18 19 20 21 21 22 23 24 24 24 24 23 22 23 23 24 24 24 24 23 24 24 25
30 28 27 27 27 24 19 15 15 16 18 19 20 19 19 18 16 15 14 14 13 13 13 13 14 14 14 13 12 11 11 12 13 14 14 13 11 11 11 12 12 12 12 11 11 11 11 11 11 12 12 12 12 13 14 14 15 15 15 16 16 16 17 18 19 20 20 21 21 22 23 24 24 23 22 22 23 23 23 23 22 21 20 21 22
29 26 25 25 25 23 19 16 16 17 18 19 20 19 18 17 16 15 14 13 13 12 12 13 13 13 13 13 13 11 10 11 12 13 13 12 11 10 10 10 10 10 10 10 10 11 11 11 12 12 13 13 14 14 15 15 15 15 15 16 16 16 17 17 18 19 19 19 20 21 22 23 23 23 22 22 22 23 23 22 20 19 19 19 20
27 23 23 23 24 24 21 18 16 17 18 19 19 18 17 17 16 15 15 14 13 12 12 12 12 13 13 13 13 12 11 10 11 11 12 11 10 10 9 9 9 9 9 9 9 10 11 11 12 12 13 13 14 14 15 15 15 15 15 16 16 16 16 17 17 18 18 19 19 19 20 21 22 22 22 22 22 24 24 24 22 21 19 19 18
25 21 21 23 25 25 22 18 16 16 17 18 19 18 17 17 16 15 14 14 14 13 12 12 11 12 12 12 12 12 11 11 10 11 11 11 10 10 10 10 9 9 8 8 9 10 11 12 13 13 14 14 14 15 15 15 15 15 16 16 16 16 16 16 16 17 17 18 18 19 19 20 20 21 21 22 22 24 26 27 26 25 23 21 19
24 19 19 21 24 24 21 17 14 15 17 18 19 18 17 16 16 15 14 14 13 13 13 12 11 11 11 11 11 12 12 11 11 11 11 11 10 11 11 11 11 10 9 9 10 11 11 12 13 13 14 14 14 15 15 15 15 16 16 16 16 16 16 16 16 16 16 17 18 18 19 19 19 20 21 21 22 23 25 27 28 28 27 25 23
23 18 16 19 22 22 19 16 14 15 17 18 19 18 17 17 17 15 14 13 13 13 13 12 12 11 11 11 11 11 12 12 11 11 11 11 11 12 12 12 12 11 11 11 11 11 11 11 11 12 13 13 14 14 15 15 15 15 15 16 16 16 16 16 16 16 16 16 17 18 18 19 19 20 20 21 22 23 24 26 28 29 29 29 28
22 16 14 17 20 20 18 16 15 16 18 19 18 18 17 17 16 15 14 14 13 13 13 12 12 12 11 11 11 11 11 12 12 12 12 12 12 12 12 12 12 12 12 12 11 11 10 10 11 11 12 12 13 13 14 14 14 14 15 15 15 15 15 15 15 15 15 16 16 17 18 18 19 19 20 21 21 22 23 25 26 28 30 32 32
19 14 12 15 18 18 17 16 16 16 18 19 18 18 18 17 16 15 14 14 13 13 13 12 12 12 12 12 11 11 11 11 11 12 12 12 12 12 12 12 12 12 11 11 10 10 10 10 11 11 11 12 12 12 13 13 13 13 13 14 14 14 14 14 15 15 15 15 16 16 17 18 19 20 20 20 21 21 23 24 25 26 29 32 34
17 13 11 14 17 17 16 16 16 16 17 18 18 18 17 16 16 15 14 14 13 13 13 13 12 12 12 12 12 11 10 10 10 11 11 12 12 12 12 12 12 11 11 11 10 10 10 10 10 11 11 12 12 12 12 12 12 12 13 13 13 13 14 14 14 15 15 16 16 16 16 17 18 19 20 21 21 21 22 23 24 25 27 29 33
16 11 10 13 16 16 16 15 15 16 17 18 18 17 17 16 16 15 15 14 13 13 13 13 12 12 12 12 12 11 10 10 10 10 10 11 11 11 11 12 12 12 12 12 12 11 11 11 10 11 11 11 11 12 12 12 12 12 12 13 13 13 14 14 14 14 15 16 16 16 16 16 17 18 19 20 21 22 22 22 23 24 25 27 29
14 10 11 13 15 16 15 15 15 16 17 17 18 18 17 17 17 16 16 15 14 13 13 13 12 12 12 12 12 12 11 10 10 10 10 10 10 11 11 11 12 12 13 13 13 13 13 12 12 12 12 11 11 12 12 12 12 12 12 13 13 13 14 14 14 14 15 15 16 16 16 16 16 16 17 18 20 21 22 23 23 24 24 25 26
13 11 12 15 16 16 15 15 15 16 17 18 18 18 18 17 17 17 16 15 14 14 13 13 13 12 12 12 12 12 11 11 10 10 10 10 10 10 11 11 12 12 13 13 14 14 14 14 14 13 13 13 13 12 13 12 12 13 13 13 13 13 13 14 14 14 15 15 15 16 16 16 16 16 16 16 17 19 20 22 23 24 24 25 25
11 11 13 16 17 16 16 16 16 16 17 18 18 18 18 18 17 17 16 16 15 15 14 13 13 12 12 12 12 12 11 11 11 10 10 10 10 10 10 11 11 12 12 13 13 14 14 14 14 14 14 14 14 14 14 13 13 13 13 13 13 13 13 14 14 14 15 15 15 16 16 16 16 17 17 17 17 17 18 19 21 22 23 25 25
9 10 14 16 17 17 16 16 16 16 17 17 18 18 18 18 17 17 17 17 16 15 15 14 13 13 12 12 12 12 12 12 11 11 11 10 10 10 10 11 11 11 11 11 12 12 13 13 13 13 14 14 14 14 14 14 14 14 13 13 13 13 14 14 14 14 15 15 16 16 16 16 16 16 16 16 17 17 17 18 18 19 21 22 24
8 10 14 16 17 17 16 16 16 16 17 17 18 19 19 18 18 18 18 17 17 16 16 15 14 14 13 13 13 13 12 12 12 12 11 11 11 11 11 11 11 11 11 11 11 11 12 12 12 12 12 13 13 13 14 14 15 15 14 14 14 14 14 14 14 14 15 15 16 16 16 16 16 16 16 16 16 16 17 17 17 17 18 19 20
9 11 14 16 17 17 17 17 16 16 17 18 18 19 19 18 18 18 18 18 17 17 16 16 15 15 15 14 14 14 13 13 13 12 12 12 12 11 11 11 11 11 11 11 11 11 12 12 12 12 12 12 12 12 12 13 13 14 15 15 15 15 14 14 14 14 15 15 15 16 16 17 17 17 17 16 16 16 16 16 16 16 17 17 18
11 13 15 16 17 17 17 17 17 17 17 18 19 19 19 19 19 19 18 18 18 17 17 17 16 16 16 16 15 15 14 14 14 14 13 13 13 12 12 12 12 12 12 12 12 12 12 12 12 12 12 12 12 12 12 12 12 12 13 14 14 15 15 15 15 15 15 15 15 16 16 16 17 18 18 17 17 17 16 16 16 16 16 17 17
Wind_Direction
314 314 314 314 314 312 309 307 306 305 303 302 299 295 289 283 278 273 271 269 268 267 267 268 269 270 271 273 275 276 279 281 284 286 289 291 291 289 288 289 290 292 296 298 297 298 301 304 302 299 294 287 278 269 260 252 244 239 236 233 234 235 237 240 242 242 240 237 235 233 231 233 235 237 239 240 240 241 243 244 244 245 244 243 242
315 313 312 312 312 311 309 307 305 304 303 302 301 298 293 288 282 276 273 271 269 268 268 268 268 269 270 271 273 274 277 279 281 284 287 289 288 287 287 288 289 292 296 299 298 298 302 306 304 301 298 293 284 274 263 254 245 240 236 232 231 232 233 236 240 242 242 240 237 235 233 232 233 235 237 239 240 240 241 242 243 245 245 245 245
316 314 312 310 309 309 307 306 304 303 304 303 301 299 296 292 286 281 275 272 270 269 268 268 268 269 269 269 271 272 274 276 278 281 284 286 286 285 286 287 289 292 295 298 298 298 302 307 306 303 302 300 292 281 268 256 246 240 236 232 230 229 230 233 237 240 243 242 240 239 236 234 233 233 234 237 239 240 240 240 241 242 244 245 245
316 315 312 308 307 306 305 304 303 303 303 302 301 300 297 294 289 284 279 274 271 270 269 269 269 269 269 269 269 270 272 274 275 278 281 284 285 284 285 287 289 289 292 296 297 297 300 305 306 304 305 306 300 287 273 259 248 240 235 232 230 229 229 231 235 238 242 243 243 241 240 238 236 234 234 235 237 240 240 240 239 240 241 242 243
314 315 313 309 306 304 303 302 301 302 302 301 301 300 298 296 292 288 282 276 273 271 270 269 269 269 268 268 269 269 269 271 273 275 278 281 282 283 284 287 288 288 290 295 296 296 298 302 305 306 306 309 305 292 276 261 249 241 235 232 230 230 230 230 233 237 240 243 244 243 242 242 240 237 236 234 235 238 240 241 241 240 239 240 240
312 313 314 311 307 303 301 299 299 300 300 300 300 299 299 298 295 291 286 280 275 272 270 269 268 268 268 268 268 268 267 268 270 272 275 278 280 281 283 285 287 288 290 293 295 294 294 298 302 306 308 309 308 298 282 265 250 241 236 232 230 231 232 232 234 237 240 243 245 245 244 244 243 241 239 237 235 235 238 241 242 242 240 239 239
309 311 314 314 309 303 300 298 298 298 298 298 299 298 298 298 296 294 290 284 279 273 270 269 268 267 267 267 268 267 266 266 267 269 272 275 277 278 281 284 286 288 289 291 295 294 291 292 298 303 307 309 307 300 288 273 256 244 237 233 232 232 233 235 236 239 242 245 247 248 247 245 246 245 242 240 238 236 235 238 240 242 242 241 239
307 309 313 315 311 304 299 298 297 296 296 296 296 296 296 296 296 294 290 287 282 276 271 269 268 268 267 267 267 266 265 264 264 266 269 272 274 275 279 282 283 286 288 290 295 295 291 289 293 299 304 307 307 299 289 278 264 250 240 235 233 234 235 237 238 241 244 246 248 250 248 246 246 247 245 243 241 239 237 236 237 239 241 242 242
306 309 311 314 312 306 300 298 296 294 294 294 294 294 294 294 294 294 290 287 283 278 274 270 269 269 267 266 265 265 264 263 261 264 267 270 271 271 276 280 281 284 287 290 294 297 295 290 289 295 300 304 306 300 289 277 266 256 247 240 236 235 236 237 238 241 243 245 247 248 248 245 243 245 246 245 243 242 240 239 237 237 239 241 242
305 307 309 311 311 307 302 298 295 293 292 292 292 292 293 293 293 293 291 287 283 279 276 272 270 269 267 265 264 264 263 260 259 261 265 268 267 268 273 277 280 283 287 290 294 297 297 292 288 292 297 301 304 301 291 277 265 256 248 244 241 238 238 238 238 239 241 243 245 246 246 244 242 243 246 247 247 245 244 242 240 238 238 238 240
304 305 307 309 310 308 303 297 293 292 291 290 291 291 292 292 293 293 291 287 283 280 276 273 271 268 266 264 263 263 261 258 257 259 263 265 264 266 270 273 277 283 286 288 290 292 293 290 288 291 295 299 301 300 294 282 269 258 249 245 243 241 241 240 239 239 240 241 243 244 245 244 242 244 246 248 250 250 248 247 244 242 240 239 238
303 304 305 306 308 308 304 298 293 291 290 289 290 290 291 292 292 292 291 288 284 281 277 274 271 268 267 264 262 261 259 256 256 257 261 264 262 262 266 269 274 281 285 283 282 284 287 288 290 294 296 299 300 299 297 291 278 264 253 248 245 243 242 241 241 241 241 242 242 242 244 245 245 245 247 250 253 254 254 252 250 248 247 244 240
303 303 303 304 306 307 304 299 293 291 289 288 289 289 290 291 291 291 291 289 286 283 278 274 271 269 267 264 261 259 256 254 255 256 259 262 261 261 263 266 270 275 281 282 279 282 287 292 297 300 299 300 299 297 296 294 287 275 261 252 248 246 245 244 244 243 243 245 246 245 245 248 249 249 249 252 254 256 257 256 255 254 253 251 247
302 301 300 301 304 305 303 299 294 290 288 287 288 289 289 289 290 290 291 291 288 284 278 274 271 268 266 263 260 257 254 252 254 255 257 260 261 261 262 265 268 271 277 283 285 289 292 295 300 303 301 299 295 290 290 290 289 286 274 261 252 248 246 244 243 243 243 244 246 247 247 249 251 251 250 251 254 255 257 258 257 256 255 253 251
303 300 297 299 302 303 302 300 296 291 287 286 286 288 287 288 289 290 291 291 289 284 278 273 270 267 265 262 258 256 253 251 252 254 256 258 259 260 262 264 266 269 274 283 288 290 292 295 298 301 302 302 297 292 289 286 285 287 286 277 263 253 248 246 244 244 243 244 245 246 247 247 249 250 249 250 252 254 257 258 257 256 254 252 251
305 299 296 296 299 299 300 301 298 290 286 284 285 286 286 287 288 289 290 291 289 284 277 273 270 267 264 261 257 255 252 250 251 253 254 256 257 258 261 263 265 267 272 280 286 288 288 291 292 293 296 298 297 295 291 286 284 285 285 282 273 263 256 252 249 247 246 246 247 248 248 248 249 251 250 250 252 254 255 256 255 253 251 250 250
306 299 293 292 294 296 300 303 298 290 284 283 283 284 285 286 287 288 290 290 288 283 277 272 269 266 263 260 256 253 251 250 251 252 253 254 256 258 259 261 264 267 270 275 282 284 283 283 284 284 284 284 286 289 289 287 285 284 282 278 275 275 270 258 251 248 247 248 248 249 250 250 251 252 252 252 252 252 253 254 254 251 250 250 251
306 296 290 288 290 294 300 303 298 290 285 282 281 282 284 285 286 287 289 290 288 283 277 272 268 265 262 259 255 252 251 250 250 250 251 253 256 258 259 260 263 266 268 271 274 278 278 277 277 277 276 275 277 282 287 288 285 284 282 277 271 272 270 257 250 246 246 247 247 248 249 250 251 253 253 254 253 252 252 253 252 251 253 255 255
303 295 290 288 289 293 300 301 297 291 286 282 281 282 282 283 285 286 289 290 288 283 278 271 267 264 261 259 256 253 251 250 249 249 250 251 254 258 260 262 265 267 267 266 267 271 274 276 276 276 274 272 272 275 280 283 283 281 277 271 265 257 253 253 251 248 248 248 248 249 249 249 250 251 252 252 253 253 253 253 251 251 255 259 259
302 296 291 289 289 292 298 300 297 292 286 282 281 281 281 282 284 285 288 289 288 283 277 271 267 264 261 258 257 254 251 249 248 248 248 250 252 257 262 266 269 268 265 264 263 265 269 272 275 277 277 274 270 269 271 273 276 278 275 268 255 229 235 248 251 252 252 251 250 250 249 248 248 249 249 250 251 251 253 254 253 253 254 255 256
303 297 293 289 287 290 296 298 296 291 285 281 280 279 280 281 283 285 287 289 288 283 276 271 267 264 261 258 255 253 250 247 246 247 248 250 254 260 265 268 268 266 264 263 264 264 265 268 272 277 281 278 270 263 260 260 261 265 269 269 260 234 231 244 252 255 254 252 250 250 250 249 248 248 248 248 248 249 251 252 253 253 253 253 253
303 298 294 289 285 287 293 296 295 290 283 279 278 277 278 280 282 284 287 288 287 283 276 271 267 263 262 259 254 252 250 247 246 247 249 252 257 262 265 267 266 265 264 264 265 266 267 267 268 271 273 271 267 263 260 257 255 255 259 265 266 257 245 240 244 249 253 254 253 253 254 254 253 253 252 251 250 251 251 251 251 252 252 252 251
304 299 294 288 282 285 290 293 292 288 281 277 276 275 277 279 281 284 287 288 287 283 277 271 266 263 262 259 256 254 252 250 250 250 252 254 257 261 265 268 268 268 267 266 267 268 269 270 270 268 264 263 265 268 265 260 256 254 253 254 258 260 256 248 243 244 249 253 255 257 259 260 259 258 258 258 257 255 253 251 250 249 249 250 249
305 300 294 286 279 281 286 290 290 286 279 275 274 274 275 278 281 283 286 288 287 283 279 273 266 263 260 258 257 256 255 255 255 256 257 258 260 264 269 272 272 271 269 268 268 269 270 271 270 268 266 264 265 267 267 265 263 259 255 252 253 256 258 257 252 248 247 249 252 256 259 261 262 260 259 258 257 255 254 252 250 248 248 249 248
307 301 294 285 276 276 282 286 287 284 278 273 272 272 274 277 279 282 285 287 287 284 280 275 268 262 259 256 256 257 257 257 258 258 259 260 263 268 271 272 273 273 272 270 269 269 269 269 269 268 267 267 266 266 267 267 265 261 256 251 250 251 254 256 257 255 253 251 250 251 253 257 260 260 256 250 248 251 253 253 251 248 246 247 248
308 301 294 284 274 272 278 283 284 282 277 273 271 271 273 276 278 280 284 286 286 285 281 276 269 263 258 256 255 256 258 259 259 259 260 262 266 268 270 271 272 272 271 270 269 269 269 268 268 267 267 266 266 266 266 264 262 260 255 250 247 248 250 254 256 257 258 256 253 250 248 250 253 252 249 247 246 249 253 254 253 249 245 245 247
307 300 293 283 272 268 273 280 283 280 275 272 270 270 273 275 276 279 282 285 285 284 281 277 272 266 261 257 256 256 257 258 259 261 263 266 267 268 268 269 270 270 270 271 271 272 270 269 267 267 267 267 266 265 263 261 258 257 254 249 246 246 248 251 253 255 257 258 258 253 246 243 244 245 247 249 249 250 252 254 254 251 247 245 245
306 300 292 282 272 266 269 277 280 277 273 270 267 269 271 273 275 278 280 283 284 283 280 276 271 266 262 258 255 254 253 256 260 265 268 268 269 270 271 271 270 271 272 273 273 271 269 268 267 268 268 267 266 263 261 258 255 253 250 247 245 244 245 247 249 251 253 255 257 255 249 242 240 242 246 250 252 253 253 254 254 254 250 247 244
306 300 292 282 271 263 266 274 276 275 272 268 266 267 269 271 274 276 278 280 281 280 277 273 269 266 263 258 255 253 254 257 263 266 268 270 272 274 275 275 275 276 276 274 272 270 269 269 269 269 267 266 264 261 257 253 250 248 246 243 242 242 243 245 246 248 250 253 254 255 254 250 245 242 243 245 248 251 252 251 253 256 255 251 247
307 301 293 282 269 261 263 269 272 272 270 266 264 265 268 270 272 274 276 279 279 278 276 272 268 265 262 259 257 255 256 260 263 265 268 272 275 277 278 280 281 280 277 275 274 273 272 271 270 270 268 266 262 258 253 249 246 243 240 239 239 241 243 244 245 246 248 251 254 255 256 256 253 249 245 242 240 242 245 247 249 253 256 256 253
308 302 293 280 266 258 258 263 268 270 267 264 262 263 266 268 270 272 275 277 277 277 274 270 266 263 261 259 258 258 258 260 262 265 269 273 277 279 282 284 283 280 279 279 276 273 271 270 269 270 269 267 264 259 253 247 243 239 236 236 237 240 243 244 245 245 247 250 253 255 256 257 256 255 252 247 243 240 242 246 249 251 254 255 255
309 302 291 275 262 255 255 260 265 266 264 261 259 260 263 266 268 270 273 274 275 275 272 267 264 262 260 259 258 258 258 259 260 262 266 271 275 280 283 283 281 280 280 277 271 266 264 264 265 267 269 269 268 264 258 252 246 241 238 236 236 239 242 244 245 245 247 249 252 255 256 257 257 256 255 253 250 246 245 246 249 253 256 256 254
311 303 289 273 261 255 253 256 261 262 260 258 256 257 260 263 265 269 271 272 272 272 269 266 263 261 260 259 256 254 253 254 256 258 261 265 271 278 282 283 282 279 276 270 264 258 255 255 257 260 262 264 266 266 265 262 258 254 249 245 243 243 244 245 246 247 249 251 253 255 256 257 257 256 255 253 251 249 247 247 251 256 258 258 255
313 304 290 275 264 257 252 252 257 258 257 256 255 255 257 260 263 266 269 270 271 269 267 265 262 260 260 259 256 253 250 250 253 256 257 261 267 275 282 284 282 277 271 265 261 257 253 253 254 253 253 254 257 261 263 262 261 261 260 257 255 253 252 252 252 252 253 254 256 257 258 257 256 254 253 251 248 246 245 246 250 255 258 259 258
314 305 292 277 265 256 248 246 251 253 254 254 253 253 256 259 263 265 267 268 269 268 265 262 260 259 259 257 256 254 250 248 249 251 254 258 263 271 279 281 278 273 267 261 261 260 258 257 256 254 252 250 251 255 258 258 257 258 259 261 261 260 260 261 260 261 260 259 259 258 258 257 256 254 252 249 244 241 240 242 247 254 258 259 258
314 306 293 277 262 252 244 241 245 248 250 251 251 252 255 258 261 264 265 266 266 266 263 260 258 257 255 255 255 255 252 249 247 248 251 256 261 268 275 277 274 270 264 261 260 260 259 258 256 254 253 252 251 253 255 255 255 255 257 260 262 262 263 264 265 266 266 264 262 259 256 255 255 252 250 246 240 236 236 237 242 249 253 253 250
313 305 291 272 256 248 243 239 241 245 247 248 249 250 252 255 257 261 265 265 264 264 261 259 257 255 253 253 254 254 253 250 247 246 248 252 257 263 269 273 272 268 264 262 262 262 261 260 259 257 256 255 254 254 253 254 255 255 256 258 260 261 262 264 265 266 268 267 266 262 257 254 252 250 248 244 239 235 234 234 235 239 242 242 240
311 302 287 268 255 250 246 240 239 242 244 246 247 248 250 252 255 258 262 264 265 264 262 260 259 257 254 252 252 254 254 252 249 248 247 249 254 259 265 270 272 271 271 272 271 269 267 264 262 260 259 258 256 256 255 255 256 256 257 258 259 261 262 262 263 264 265 266 266 263 259 255 252 248 246 243 240 237 235 234 234 233 232 231 230
310 298 283 267 257 252 246 239 237 241 243 245 246 247 249 252 254 256 258 262 264 266 266 265 264 262 259 254 251 250 252 252 251 251 250 251 253 258 262 265 268 270 272 272 271 269 266 263 261 260 259 259 259 258 258 257 257 258 259 259 260 261 262 263 263 264 264 263 263 262 260 256 253 249 245 243 242 240 237 236 236 235 231 226 224
311 296 278 264 254 248 242 235 232 236 241 243 244 246 248 251 253 256 258 259 261 264 266 267 267 266 265 261 255 251 250 252 253 253 253 253 252 254 257 261 264 266 266 265 264 265 265 265 266 265 264 263 263 262 262 261 259 259 260 260 260 261 262 263 263 263 263 262 261 260 258 256 253 251 247 244 243 242 240 238 237 236 232 226 223
313 296 274 259 250 244 240 233 230 234 239 241 243 245 247 249 253 256 258 259 260 262 264 266 267 267 267 264 260 255 250 249 250 252 252 253 252 252 254 256 257 259 259 259 259 260 263 266 268 269 269 268 268 267 267 267 265 263 262 261 261 261 261 262 262 261 261 261 261 260 258 256 254 251 250 248 245 243 241 239 237 236 234 229 226
314 296 271 253 245 241 236 230 229 234 238 241 243 244 245 249 253 255 257 260 261 261 263 265 265 266 267 265 262 258 252 249 249 250 251 252 253 254 255 256 256 258 259 260 262 262 263 263 264 266 267 268 269 270 271 271 270 269 266 264 262 261 261 261 261 260 260 260 260 260 260 259 257 254 252 250 248 245 243 240 238 236 235 232 230
314 294 266 248 243 240 233 228 230 234 238 241 244 245 247 251 253 254 257 259 260 261 263 263 264 265 266 266 265 263 259 255 253 253 253 253 254 255 257 259 262 264 266 267 269 268 267 266 264 264 264 265 266 268 269 271 272 272 271 268 267 265 263 263 261 260 258 257 257 258 259 259 259 257 255 253 251 249 247 244 241 239 236 234 233
312 288 257 246 244 240 234 230 232 235 239 242 244 245 247 250 251 253 255 256 257 259 260 260 262 263 263 264 266 266 264 263 261 260 260 260 259 260 261 262 264 266 268 269 270 269 269 268 267 265 264 265 265 265 266 268 269 269 269 269 268 267 266 265 263 260 258 256 255 256 257 257 258 258 257 255 253 252 250 249 247 244 241 238 236
308 277 248 240 240 238 235 232 232 237 241 242 242 243 245 246 248 250 252 252 254 256 256 256 258 258 259 261 263 264 265 265 264 264 265 265 265 265 265 265 266 266 266 267 268 268 268 268 268 268 267 267 267 267 267 267 267 267 267 267 267 267 267 266 264 262 260 257 255 255 256 256 257 258 257 256 255 254 253 251 250 248 246 244 241
303 270 243 234 234 234 232 230 233 238 242 242 242 243 244 245 247 249 250 251 252 253 254 255 255 255 256 258 258 259 262 262 262 263 264 264 265 267 267 267 267 267 266 266 265 266 266 266 266 267 268 268 268 268 267 267 267 266 266 266 267 267 267 266 266 264 262 260 259 257 256 256 256 256 257 257 255 254 254 253 252 251 249 248 246
297 264 242 236 235 234 230 230 233 238 242 244 245 245 245 247 249 250 250 252 253 252 254 255 254 254 255 256 255 257 258 258 259 261 261 261 262 264 264 266 267 266 266 266 265 265 265 264 264 264 265 265 267 267 267 267 267 266 265 264 265 265 265 265 265 265 263 261 261 259 259 259 258 256 255 256 255 255 254 254 253 252 251 250 248
289 255 241 239 239 237 233 232 234 238 243 245 246 245 246 248 249 250 251 252 252 253 254 255 254 254 255 254 254 256 255 255 256 257 256 257 259 259 258 261 262 262 264 265 266 266 267 266 265 264 264 263 264 265 266 267 268 266 265 264 262 261 262 262 262 263 263 262 262 261 260 260 260 259 257 257 256 256 255 254 253 253 251 251 250
275 245 238 239 241 240 237 234 234 239 244 245 245 246 247 247 248 250 251 251 251 253 253 253 254 254 254 254 255 255 254 254 255 255 255 256 256 255 256 257 257 258 260 261 263 265 266 266 267 267 267 266 266 266 265 266 267 267 267 267 265 263 262 261 261 261 261 261 261 261 261 261 261 261 261 260 259 259 258 257 255 254 252 250 250
260 239 234 238 241 240 236 234 234 238 242 243 244 244 245 245 247 248 249 250 251 252 251 252 253 254 253 254 255 254 254 255 255 254 255 256 255 255 256 256 256 258 259 258 260 262 262 263 265 267 268 269 270 269 268 268 267 267 267 267 267 267 266 264 262 262 261 261 261 261 261 261 261 261 261 261 261 261 261 260 258 256 254 251 249
257 240 235 238 239 237 233 232 233 235 238 241 242 243 243 245 246 248 249 250 251 251 251 252 253 252 253 254 255 255 256 256 255 256 257 257 256 257 257 257 257 259 258 258 260 261 261 262 264 265 266 267 268 269 270 271 270 270 270 269 268 268 267 266 265 263 262 262 262 262 262 262 261 261 261 261 261 261 261 261 260 259 257 254 251